This demonstration page uses our WeatherBlox Daily Observations layout. Learn more.

Left ArrowRight Arrow

38.89511, -77.03637

Hourly Observations for May 3, 2019

Temp ( °F °C ) Dew Point ( °F °C ) Humidity (%) Winds ( mph kmh ) Pressure ( in mb ) Visibility ( mi km ) Precip ( " mm )
12:02 am 00:02 Cloudy 69 20.6 66 18.9 90 90 S 7 11 30.08 1019 9 14 N/A
12:52 am 00:52 Cloudy 67 19.4 64 17.8 91 91 S 5 7 30.08 1019 10 16 N/A
1:52 am 01:52 Cloudy 68 20 63 17.2 84 84 SSE 6 9 30.06 1018 10 16 N/A
2:52 am 02:52 Partly Cloudy 66 18.9 62 16.7 87 87 S 3 6 30.04 1017 10 16 N/A
3:52 am 03:52 Partly Cloudy 67 19.4 62 16.7 84 84 N N/A 30.03 1017 10 16 N/A
4:52 am 04:52 Mostly Clear 66 18.9 62 16.7 87 87 N N/A 30.02 1017 10 16 N/A
5:52 am 05:52 Clear 65 18.3 62 16.7 90 90 ENE 5 7 30.01 1016 10 16 N/A
6:52 am 06:52 Mostly Cloudy 66 18.9 63 17.2 90 90 N N/A 30.03 1017 10 16 N/A
7:52 am 07:52 Mostly Cloudy 67 19.4 62 16.7 84 84 SE 3 6 30.03 1017 10 16 N/A
8:52 am 08:52 Mostly Cloudy 70 21.1 61 16.1 73 73 S 6 9 30.03 1017 10 16 N/A
9:52 am 09:52 Partly Cloudy 71 21.7 63 17.2 76 76 S 7 11 30.04 1017 10 16 N/A
11:52 am 11:52 Partly Cloudy 74 23.3 65 18.3 74 74 ENE 10 17 30.03 1017 10 16 N/A
12:52 pm 12:52 Partly Cloudy 74 23.3 65 18.3 74 74 NE 12 19 30.01 1016 10 16 N/A
1:52 pm 13:52 Partly Cloudy 76 24.4 66 18.9 72 72 NE 12 19 30.00 1016 10 16 N/A
2:52 pm 14:52 Mostly Sunny 75 23.9 65 18.3 71 71 NE 13 20 29.96 1015 10 16 N/A
3:52 pm 15:52 Mostly Cloudy 76 24.4 65 18.3 69 69 NE 14 22 29.93 1014 10 16 N/A
4:52 pm 16:52 Mostly Cloudy 78 25.6 66 18.9 67 67 NE 10 17 29.91 1013 10 16 N/A
6:52 pm 18:52 Partly Cloudy 78 25.6 65 18.3 64 64 E 7 11 29.89 1012 10 16 N/A
7:52 pm 19:52 Mostly Cloudy 74 23.3 65 18.3 74 74 E 9 15 29.88 1012 10 16 N/A
8:52 pm 20:52 Mostly Cloudy 71 21.7 65 18.3 81 81 NE 8 13 29.91 1013 10 16 N/A
9:52 pm 21:52 Mostly Cloudy 70 21.1 64 17.8 82 82 NE 10 17 29.94 1014 10 16 N/A
10:46 pm 22:46 Mostly Cloudy with Light Rain 70 21 63 17 78 78 N 12 19 29.96 1015 9 14 N/A
10:52 pm 22:52 Cloudy with Light Rain 70 21.1 63 17.2 79 79 N 13 20 29.95 1014 9 14 N/A
11:52 pm 23:52 Cloudy 69 20.6 62 16.7 78 78 NNE 13 20 29.93 1013 9 14 N/A

Powered by AerisWeather